GLOBALSTAR M081 [+]

Last updated on Fri Dec 29 2023 00:02:56 GMT+0000 (Coordinated Universal Time)

1 37743U 11033E 23362.47676819 -.00000079 00000+0 13618-3 0 9994 2 37743 51.9973 61.0840 0000750 147.0117 315.3928 12.62267820576445

Satellite not in orbit

GLOBALSTAR M081 [+]